EW5545 Weather Reports


Display with metric or nautical units.
time (UTC)temp
F
wind
direction
speed
MPH
gust
MPH
rain 1hr
in
rain 24hr
in
rain mn
in
humidity
%
barometer
mb
20260508203006 55 58 1.0 2.0 0.01 0.19 0.19 83 1015.0
20260508202505 55 52 1.0 3.0 0.01 0.19 0.19 83 1015.0
20260508202006 55 56 1.0 3.0 0.01 0.19 0.19 83 1015.0
20260508201505 55 53 1.0 3.0 0.01 0.19 0.19 83 1015.0
20260508201007 55 46 1.0 3.0 0.01 0.19 0.19 83 1015.1
20260508200507 55 38 1.0 3.0 0.01 0.19 0.19 83 1015.0
20260508194506 55 54 2.0 5.0 0.01 0.18 0.18 83 1014.7
20260508194007 55 50 2.0 3.0 0.01 0.18 0.18 83 1014.8
20260508193505 56 49 1.0 3.0 0.01 0.18 0.18 83 1014.8
20260508193007 55 44 1.0 3.0 0.01 0.18 0.18 83 1014.8
20260508192505 55 56 1.0 3.0 0.01 0.18 0.18 83 1014.7
20260508192008 55 45 1.0 2.0 0.02 0.18 0.18 83 1014.7
20260508191507 55 49 2.0 3.0 0.02 0.18 0.18 83 1014.6
20260508191007 55 51 1.0 2.0 0.02 0.18 0.18 83 1014.6
20260508190508 55 34 0.0 1.0 0.02 0.18 0.18 83 1014.5
20260508190006 55 33 1.0 3.0 0.01 0.17 0.17 83 1014.5
20260508185506 55 36 1.0 3.0 0.01 0.17 0.17 83 1014.4
20260508185007 55 37 1.0 6.0 0.01 0.17 0.17 83 1014.2
20260508184507 55 45 3.0 6.0 0.01 0.17 0.17 83 1014.1
20260508184013 55 46 1.0 5.0 0.01 0.17 0.17 83 1014.0
20260508183511 55 49 3.0 8.0 0.01 0.17 0.17 83 1013.9
20260508183011 55 44 5.0 10.0 0.01 0.17 0.17 83 1013.7
20260508182506 55 55 6.0 10.0 0.01 0.17 0.17 83 1013.7
20260508182006 55 40 3.0 8.0 0.00 0.17 0.17 83 1013.6
20260508181505 55 46 5.0 9.0 0.00 0.17 0.17 83 1013.5
20260508181006 56 45 2.0 9.0 0.00 0.17 0.17 83 1013.4
20260508180507 55 45 3.0 7.0 0.00 0.17 0.17 83 1013.2
20260508180005 55 51 3.0 7.0 0.00 0.17 0.17 83 1013.2
20260508175511 55 54 4.0 10.0 0.00 0.17 0.17 83 1013.0
20260508175005 56 51 6.0 12.0 0.00 0.17 0.17 83 1012.9
20260508174005 55 47 5.0 9.0 0.00 0.17 0.17 83 1012.8
20260508173507 55 48 3.0 10.0 0.00 0.17 0.17 83 1012.7
20260508173006 55 51 4.0 7.0 0.00 0.17 0.17 83 1012.7
20260508172505 55 41 4.0 9.0 0.00 0.17 0.17 83 1012.7
20260508172007 55 38 5.0 9.0 0.00 0.17 0.17 83 1012.7
20260508171505 55 45 3.0 8.0 0.00 0.17 0.17 83 1012.7
20260508171011 55 51 3.0 9.0 0.00 0.17 0.17 83 1012.7
20260508170506 55 45 5.0 12.0 0.00 0.17 0.17 83 1012.6
20260508170011 55 44 3.0 13.0 0.00 0.17 0.17 83 1012.6
20260508165505 56 45 4.0 9.0 0.00 0.17 0.17 83 1012.6
20260508165005 56 46 3.0 7.0 0.00 0.17 0.17 83 1012.5
20260508164505 56 47 3.0 8.0 0.00 0.17 0.17 83 1012.4
20260508164010 56 54 2.0 6.0 0.00 0.17 0.17 83 1012.3
20260508163505 55 45 2.0 6.0 0.00 0.17 0.17 83 1012.3
20260508163007 55 40 2.0 7.0 0.00 0.17 0.17 83 1012.1
20260508162507 55 50 3.0 9.0 0.00 0.17 0.17 83 1012.0
20260508162005 55 41 7.0 12.0 0.00 0.17 0.17 83 1012.0
20260508161507 56 48 6.0 15.0 0.00 0.17 0.17 83 1011.9
20260508161006 56 52 7.0 20.0 0.00 0.17 0.17 83 1011.9
20260508160511 56 44 5.0 10.0 0.00 0.17 0.17 83 1011.9
20260508160005 56 37 7.0 14.0 0.00 0.17 0.17 83 1011.8
20260508155507 56 44 7.0 14.0 0.00 0.17 0.17 83 1011.8
20260508155007 56 45 4.0 12.0 0.01 0.17 0.17 83 1011.8
20260508154506 56 47 5.0 15.0 0.01 0.17 0.17 83 1011.7
20260508154016 56 41 7.0 15.0 0.01 0.17 0.17 83 1011.7
20260508153507 56 44 7.0 13.0 0.01 0.17 0.17 83 1011.5
20260508153007 56 48 6.0 10.0 0.01 0.17 0.17 83 1011.5
20260508152006 56 50 4.0 9.0 0.01 0.17 0.17 83 1011.6
20260508151506 57 53 5.0 14.0 0.01 0.17 0.17 83 1011.5
20260508150506 56 47 6.0 12.0 0.02 0.17 0.17 83 1011.5
20260508150007 56 49 5.0 9.0 0.02 0.17 0.17 83 1011.5
20260508145506 56 48 4.0 10.0 0.02 0.17 0.17 83 1011.6
20260508144506 56 37 5.0 9.0 0.01 0.16 0.16 83 1011.5
20260508143507 56 48 3.0 9.0 0.01 0.16 0.16 83 1011.4
20260508142505 56 51 2.0 8.0 0.01 0.16 0.16 83 1011.4
20260508142007 56 48 3.0 8.0 0.01 0.16 0.16 83 1011.4
20260508141007 56 43 4.0 8.0 0.00 0.15 0.15 83 1011.2
20260508140508 56 50 5.0 8.0 0.01 0.15 0.15 83 1011.2
20260508140007 56 38 4.0 9.0 0.01 0.15 0.15 83 1011.2
20260508135506 56 47 5.0 9.0 0.01 0.15 0.15 83 1011.2
20260508135005 56 42 5.0 13.0 0.01 0.15 0.15 83 1011.3
20260508134506 56 46 7.0 12.0 0.01 0.15 0.15 83 1011.2
20260508134007 56 46 5.0 13.0 0.01 0.15 0.15 83 1011.2
20260508133507 56 54 2.0 12.0 0.01 0.15 0.15 83 1011.2
20260508132507 56 44 5.0 10.0 0.01 0.15 0.15 83 1011.0
20260508132005 56 46 3.0 12.0 0.01 0.15 0.15 83 1011.0
20260508131507 56 45 3.0 12.0 0.01 0.15 0.15 83 1011.1
20260508131007 56 45 5.0 9.0 0.01 0.15 0.15 83 1011.1
20260508130507 56 43 7.0 13.0 0.00 0.14 0.14 83 1011.2
20260508130007 56 51 7.0 14.0 0.00 0.14 0.14 83 1011.2
20260508125507 56 41 3.0 7.0 0.00 0.14 0.14 83 1011.2
20260508124510 56 48 3.0 10.0 0.00 0.14 0.14 83 1011.1
20260508124016 56 40 5.0 16.0 0.00 0.14 0.14 83 1011.0
20260508123506 56 40 3.0 10.0 0.00 0.14 0.14 83 1010.9
20260508123007 56 43 7.0 12.0 0.00 0.14 0.14 83 1010.9
20260508122006 56 59 3.0 12.0 0.00 0.14 0.14 83 1010.9
20260508121505 56 39 6.0 12.0 0.00 0.14 0.14 83 1010.9
20260508121014 56 58 3.0 7.0 0.00 0.14 0.14 83 1010.8
20260508120505 56 30 6.0 13.0 0.00 0.14 0.14 84 1010.8
20260508120006 56 39 6.0 12.0 0.00 0.14 0.14 84 1010.8
20260508115505 56 30 10.0 15.0 0.00 0.14 0.14 84 1010.7
20260508115007 56 48 5.0 12.0 0.00 0.14 0.14 84 1010.6
20260508114505 56 46 6.0 12.0 0.00 0.14 0.14 84 1010.6
20260508114007 57 40 5.0 8.0 0.00 0.14 0.14 84 1010.6
20260508113506 56 38 7.0 12.0 0.00 0.14 0.14 84 1010.6
20260508113007 56 37 6.0 9.0 0.00 0.14 0.14 84 1010.6
20260508112511 56 42 5.0 12.0 0.00 0.14 0.14 84 1010.7
20260508112005 56 47 6.0 12.0 0.00 0.14 0.14 84 1010.6
20260508111507 56 41 4.0 12.0 0.00 0.14 0.14 84 1010.6
20260508111007 56 51 6.0 14.0 0.00 0.14 0.14 85 1010.7
20260508110005 57 38 7.0 14.0 0.01 0.14 0.14 85 1010.8
20260508105507 57 46 6.0 14.0 0.01 0.14 0.14 85 1010.8
20260508104507 57 44 5.0 12.0 0.02 0.14 0.14 85 1010.8
20260508104007 57 38 3.0 10.0 0.02 0.14 0.14 85 1010.8
20260508103507 57 42 5.0 10.0 0.02 0.14 0.14 85 1010.8
20260508103007 57 48 4.0 10.0 0.02 0.14 0.14 85 1010.9
20260508102505 57 45 5.0 10.0 0.02 0.14 0.14 86 1010.8
20260508102007 58 34 5.0 13.0 0.02 0.14 0.14 86 1010.8
20260508101507 57 48 3.0 12.0 0.02 0.14 0.14 86 1010.9
20260508100510 58 39 6.0 12.0 0.02 0.14 0.14 86 1010.9
20260508100007 58 48 2.0 6.0 0.02 0.13 0.13 86 1010.9
20260508095017 58 57 3.0 6.0 0.02 0.13 0.13 86 1010.9
20260508094007 58 46 4.0 8.0 0.01 0.13 0.13 87 1010.9
20260508093506 58 43 2.0 7.0 0.01 0.13 0.13 87 1011.0
20260508093011 58 50 3.0 7.0 0.01 0.13 0.13 87 1011.0
20260508092504 58 53 2.0 5.0 0.01 0.13 0.13 87 1011.0
20260508092008 58 50 2.0 8.0 0.01 0.13 0.13 87 1011.1
20260508091505 58 35 2.0 6.0 0.01 0.13 0.13 87 1011.1
20260508091007 57 44 3.0 8.0 0.00 0.12 0.12 87 1011.1
20260508090505 57 44 2.0 5.0 0.00 0.12 0.12 87 1011.1
20260508090007 57 43 2.0 8.0 0.01 0.12 0.12 87 1011.2
20260508085506 57 43 3.0 7.0 0.01 0.12 0.12 87 1011.2
20260508085007 57 46 2.0 7.0 0.01 0.12 0.12 87 1011.2
20260508084507 57 42 2.0 9.0 0.01 0.12 0.12 87 1011.2
20260508083505 57 49 2.0 5.0 0.02 0.12 0.12 87 1011.2
20260508083011 57 47 3.0 6.0 0.02 0.12 0.12 87 1011.2
20260508082505 57 41 4.0 7.0 0.02 0.12 0.12 87 1011.1
20260508082007 57 50 5.0 12.0 0.03 0.12 0.12 87 1011.1
20260508081505 57 46 5.0 8.0 0.03 0.12 0.12 87 1011.1
20260508081007 57 40 3.0 9.0 0.04 0.12 0.12 87 1011.0
20260508080505 57 45 5.0 7.0 0.04 0.12 0.12 87 1011.0
20260508080006 57 45 3.0 7.0 0.04 0.11 0.11 88 1011.0
20260508075505 57 45 3.0 6.0 0.04 0.11 0.11 88 1011.0
20260508075007 57 51 3.0 6.0 0.04 0.11 0.11 88 1011.0
20260508074510 57 42 2.0 3.0 0.05 0.11 0.11 88 1011.0
20260508074007 57 45 2.0 3.0 0.04 0.10 0.10 88 1011.0
20260508073505 57 43 1.0 3.0 0.05 0.10 0.10 88 1011.0
20260508073006 57 41 1.0 3.0 0.05 0.10 0.10 88 1011.1
20260508072506 57 50 0.0 3.0 0.05 0.09 0.09 88 1011.1
20260508072007 57 49 0.0 1.0 0.04 0.09 0.09 88 1011.0
20260508071511 57 47 0.0 2.0 0.05 0.09 0.09 88 1011.1
20260508071005 57 47 0.0 2.0 0.05 0.08 0.08 88 1011.1
20260508070506 57 52 1.0 2.0 0.05 0.08 0.08 88 1011.0
20260508070011 57 51 1.0 2.0 0.05 0.07 0.07 88 1011.0
20260508065506 57 48 0.0 2.0 0.06 0.07 0.07 88 1011.0
20260508065005 57 43 0.0 1.0 0.06 0.07 0.07 88 1011.0
20260508064507 57 45 0.0 1.0 0.06 0.06 0.06 88 1011.0
20260508064007 57 65 0.0 3.0 0.06 0.06 0.06 88 1011.1
20260508063510 57 52 0.0 0.0 0.06 0.06 0.06 88 1011.1
20260508063012 57 52 0.0 0.0 0.06 0.06 0.06 88 1011.1
20260508062507 57 49 0.0 0.0 0.05 0.05 0.05 88 1011.1
20260508061506 57 17 0.0 0.0 0.04 0.04 0.04 88 1011.1
20260508061007 57 19 0.0 1.0 0.03 0.03 0.03 87 1011.1
20260508060007 57 44 0.0 0.0 0.02 0.03 0.02 87 1011.0
20260508055515 57 54 0.0 0.0 0.02 0.02 0.02 86 1011.1
20260508055007 57 54 0.0 0.0 0.02 0.02 0.02 86 1011.1
20260508054506 57 54 0.0 0.0 0.01 0.02 0.01 86 1011.0
20260508053506 58 54 0.0 0.0 0.00 0.02 0.00 85 1011.0
20260508053007 58 54 0.0 0.0 0.00 0.02 0.00 84 1011.0
20260508052007 58 54 0.0 0.0 0.00 0.02 0.00 83 1010.9
20260508051505 58 54 0.0 0.0 0.00 0.02 0.00 82 1010.9
20260508051005 58 54 0.0 0.0 0.00 0.02 0.00 81 1010.8
20260508050506 58 54 0.0 0.0 0.00 0.02 0.00 80 1010.8
20260508050005 58 54 0.0 0.0 0.00 0.02 0.00 80 1010.8
20260508045507 58 54 0.0 0.0 0.00 0.04 0.00 79 1010.8
20260508045010 58 54 0.0 0.0 0.00 0.05 0.00 79 1010.7
20260508044505 57 54 0.0 0.0 0.00 0.06 0.00 78 1010.7
20260508043505 57 54 0.0 1.0 0.00 0.06 0.00 78 1010.6
20260508042506 57 54 0.0 2.0 0.00 0.06 0.00 77 1010.6
20260508042007 57 48 0.0 2.0 0.00 0.06 0.00 78 1010.6
20260508041008 57 57 1.0 3.0 0.00 0.06 0.00 79 1010.6
20260508040505 57 41 0.0 1.0 0.00 0.06 0.00 80 1010.6
20260508040008 56 41 0.0 2.0 0.00 0.06 0.00 81 1010.6
20260508035505 56 57 1.0 3.0 0.00 0.06 0.00 82 1010.6
20260508035010 56 40 0.0 0.0 0.00 0.07 0.00 82 1010.7
20260508034007 56 40 0.0 0.0 0.00 0.07 0.00 80 1010.6
20260508033508 57 42 0.0 1.0 0.00 0.08 0.00 79 1010.6
20260508033007 57 42 0.0 0.0 0.00 0.08 0.00 78 1010.5
20260508032506 57 42 0.0 1.0 0.00 0.09 0.00 78 1010.5
20260508032007 57 42 0.0 1.0 0.00 0.11 0.00 78 1010.5
20260508031510 57 42 1.0 2.0 0.00 0.11 0.00 78 1010.5
20260508031006 57 41 0.0 2.0 0.00 0.12 0.00 78 1010.5
20260508030506 57 45 1.0 2.0 0.00 0.13 0.00 78 1010.5
20260508030005 57 47 1.0 3.0 0.00 0.14 0.00 78 1010.5
20260508025505 57 42 2.0 3.0 0.00 0.15 0.00 78 1010.5
20260508025007 57 56 1.0 2.0 0.00 0.16 0.00 78 1010.6
20260508023505 57 35 1.0 2.0 0.00 0.17 0.00 77 1010.8
20260508022007 57 28 1.0 2.0 0.00 0.18 0.00 76 1010.8
20260508021506 57 28 1.0 3.0 0.00 0.18 0.00 76 1010.9
20260508020507 57 31 1.0 2.0 0.00 0.18 0.00 76 1011.0
20260508015505 57 62 1.0 2.0 0.00 0.18 0.00 75 1011.1
20260508015007 57 60 1.0 2.0 0.00 0.19 0.00 75 1011.1
20260508014507 57 66 1.0 2.0 0.00 0.19 0.00 75 1011.1
20260508014007 57 22 1.0 2.0 0.00 0.20 0.00 75 1011.2
20260508013510 57 110 0.0 2.0 0.00 0.20 0.00 75 1011.2
20260508013010 57 221 0.0 1.0 0.00 0.21 0.00 74 1011.2
20260508012505 57 171 1.0 1.0 0.00 0.22 0.00 74 1011.2
20260508012007 57 115 0.0 1.0 0.00 0.23 0.00 74 1011.2
20260508011505 57 116 0.0 1.0 0.00 0.24 0.00 74 1011.2
20260508010507 57 85 1.0 2.0 0.00 0.26 0.00 73 1011.1
20260508010010 57 315 0.0 2.0 0.00 0.27 0.00 73 1011.1
20260508005505 57 134 1.0 3.0 0.00 0.28 0.00 73 1011.0
20260508005011 57 40 1.0 3.0 0.00 0.28 0.00 73 1011.0
20260508003507 57 56 1.0 3.0 0.00 0.28 0.00 72 1011.2
20260508002505 57 229 1.0 6.0 0.00 0.28 0.00 72 1011.3
20260508002007 56 104 2.0 5.0 0.00 0.28 0.00 72 1011.3
20260508001505 56 174 1.0 3.0 0.00 0.28 0.00 72 1011.3
20260508001007 57 167 1.0 2.0 0.00 0.28 0.00 71 1011.4
20260508000510 57 167 1.0 2.0 0.00 0.28 0.00 70 1011.5
20260508000010 57 154 1.0 3.0 0.00 0.28 0.00 69 1011.6
20260507235507 57 133 0.0 2.0 0.00 0.28 0.00 69 1011.8
20260507235007 57 52 0.0 2.0 0.00 0.28 0.00 68 1011.8
20260507234011 58 142 0.0 2.0 0.00 0.29 0.00 68 1012.0
20260507233510 58 116 0.0 1.0 0.00 0.29 0.00 67 1012.0
20260507233007 58 147 0.0 2.0 0.00 0.29 0.00 67 1012.1
20260507232505 58 172 0.0 1.0 0.00 0.29 0.00 67 1012.2
20260507232006 58 190 0.0 2.0 0.00 0.29 0.00 67 1012.3
20260507231006 58 179 1.0 3.0 0.00 0.29 0.00 66 1012.4
20260507230508 58 173 1.0 3.0 0.00 0.29 0.00 65 1012.5
20260507225506 58 173 2.0 7.0 0.00 0.29 0.00 64 1012.6
20260507225005 58 141 1.0 7.0 0.00 0.29 0.00 64 1012.7
20260507224507 58 170 1.0 3.0 0.00 0.29 0.00 64 1012.7
20260507224006 58 169 1.0 3.0 0.00 0.29 0.00 64 1012.8
20260507223507 58 166 2.0 3.0 0.00 0.29 0.00 63 1012.9
20260507223008 58 172 2.0 5.0 0.00 0.29 0.00 63 1012.9
20260507222507 59 171 2.0 5.0 0.00 0.29 0.00 63 1012.8
20260507222006 59 167 2.0 3.0 0.00 0.29 0.00 63 1012.8
20260507221507 59 171 2.0 5.0 0.00 0.29 0.00 63 1012.8
20260507221011 59 174 2.0 3.0 0.00 0.29 0.00 62 1012.8
20260507220507 59 169 2.0 5.0 0.00 0.29 0.00 62 1012.7
20260507220006 59 184 2.0 5.0 0.00 0.29 0.00 61 1012.7
20260507215505 59 179 3.0 6.0 0.00 0.29 0.29 61 1012.8
20260507215011 59 170 4.0 7.0 0.00 0.29 0.29 60 1012.8
20260507214506 59 177 3.0 6.0 0.00 0.29 0.29 60 1012.7
20260507214015 59 170 4.0 7.0 0.00 0.29 0.29 60 1012.8
20260507213514 59 176 4.0 9.0 0.00 0.29 0.29 60 1012.8
20260507213008 59 172 4.0 9.0 0.00 0.29 0.29 61 1012.9
20260507212506 58 182 3.0 8.0 0.00 0.29 0.29 62 1012.9
20260507211006 57 179 1.0 3.0 0.00 0.29 0.29 66 1012.9
20260507210507 57 169 1.0 2.0 0.00 0.29 0.29 67 1013.0
20260507205507 57 67 1.0 3.0 0.00 0.29 0.29 69 1013.0
20260507205005 57 29 0.0 3.0 0.00 0.29 0.29 71 1013.0
20260507204506 56 175 0.0 1.0 0.00 0.29 0.29 72 1013.1
20260507204011 56 140 0.0 3.0 0.00 0.29 0.29 74 1013.1
20260507203507 56 169 1.0 3.0 0.00 0.29 0.29 76 1013.2